[[{"header":{"parameterUnit":"m.s-1","parameterCategory":1,"la1":30.2991,"la2":30.254,"lo1":-89.0895,"lo2":-89.0444,"dy":0.0017,"dx":0.0017,"nx":28,"ny":28,"refTime":"2024-04-02T21:00:00:Z","depth":0,"parameterNumber":2,"parameterNumberName":"U-component_of_WINDS"},"data":[0,0,0,0,0,0,0,0,0,0,0,0,0,0,0,0,0,0,0,0,0,0,0,0,0,0,0,0,0,0,0,0,0,0,0,0,0,0,0,0,0,0,0,0,0,0,0,0,0,0,0,0,0,0,0,0,0,0,-0.0543,-0.0543,0,-0.0549,-0.0549,-0.0549,-0.056,-0.0561,-0.0561,-0.0561,-0.0568,-0.0568,-0.0568,0,0,0,0,0,0,0,0,0,0,0,0,0,-0.054,-0.054,-0.0543,-0.0543,-0.0543,-0.0549,-0.0549,-0.0549,-0.056,-0.0561,-0.0561,-0.0561,-0.0568,-0.0568,-0.0568,0,0,0,0,0,0,0,0,0,0,0,0,0,-0.0544,-0.054,-0.0542,-0.0549,-0.055,-0.0549,-0.0549,-0.0549,-0.056,-0.0561,-0.0561,-0.0561,-0.0568,-0.0568,-0.0568,-0.0561,0,0,-0.0568,-0.0568,0,0,0,0,0,0,0,0,-0.0543,-0.0544,-0.0548,-0.0549,-0.0549,-0.0554,-0.0551,-0.0553,-0.056,-0.0556,-0.0561,-0.0561,-0.0563,-0.0563,-0.0564,-0.0561,-0.0562,-0.0568,-0.0568,-0.0568,-0.0568,0,0,0,0,0,0,0,-0.0543,-0.0543,-0.0545,-0.0548,-0.0549,-0.0552,-0.0553,-0.0551,-0.0558,-0.0557,-0.0557,-0.0558,-0.0563,-0.0564,-0.0564,-0.0562,-0.0568,-0.0568,-0.0568,-0.0568,-0.0555,-0.0554,0,0,0,0,0,0,-0.0542,-0.0543,-0.0545,-0.0545,-0.0547,-0.0552,-0.0552,-0.0552,-0.0558,-0.0559,-0.0558,-0.0559,-0.0564,-0.0564,-0.0564,-0.0557,-0.0568,-0.0568,-0.0568,-0.0555,-0.0555,-0.0554,0,0,0,0,0,0,-0.0542,-0.0542,-0.0545,-0.0544,-0.0545,-0.0551,-0.0551,-0.0552,-0.0553,-0.0559,-0.056,-0.0557,-0.0564,-0.0564,-0.0562,-0.0558,-0.0568,-0.0568,-0.0555,-0.0555,-0.0555,-0.0543,0,0,0,0,0,0,-0.0542,-0.0542,-0.0539,-0.0544,-0.0545,-0.0542,-0.0551,-0.0552,-0.0553,-0.0554,-0.0558,-0.0559,-0.0564,-0.0562,-0.0562,-0.0558,-0.0567,-0.0556,-0.0555,-0.0555,-0.0544,-0.0542,-0.0541,0,0,0,0,0,-0.0542,-0.0536,-0.0539,-0.0539,-0.0542,-0.0542,-0.0542,-0.0548,-0.0552,-0.055,-0.0554,-0.0559,-0.0558,-0.0562,-0.0562,-0.0557,-0.0556,-0.0555,-0.0555,-0.0544,-0.0542,-0.0541,0,0,0,0,0,0,-0.053,-0.0536,-0.054,-0.0536,-0.0538,-0.0543,-0.054,-0.0545,-0.0546,-0.0547,-0.0555,-0.0556,-0.0552,-0.0555,-0.0558,-0.0552,-0.0558,-0.0557,-0.055,-0.0548,-0.0547,-0.0546,-0.0567,0,0,0,0,0,-0.0527,-0.0526,-0.0532,-0.0527,-0.0528,-0.0534,-0.0534,-0.0538,-0.0541,-0.0542,-0.0546,-0.0548,-0.0549,-0.0549,-0.0549,-0.0544,-0.0545,-0.0541,-0.054,-0.0539,-0.0538,-0.0536,-0.0534,-0.0552,-0.0552,-0.0552,0,0,-0.052,-0.0524,-0.0523,-0.0525,-0.0527,-0.0526,-0.0535,-0.0533,-0.0533,-0.0542,-0.054,-0.0543,-0.0546,-0.0542,-0.0541,-0.0544,-0.0533,-0.0538,-0.0537,-0.0536,-0.0535,-0.0533,-0.0531,-0.0552,-0.0552,-0.0552,0,0,-0.0508,-0.051,-0.0507,-0.0509,-0.0513,-0.0517,-0.0516,-0.0521,-0.0523,-0.0521,-0.0528,-0.0527,-0.0528,-0.053,-0.0531,-0.052,-0.0525,-0.052,-0.0512,-0.051,-0.0508,-0.0507,-0.0504,-0.0502,-0.0519,-0.0519,-0.0519,0,-0.0499,-0.0498,-0.0505,-0.0503,-0.0504,-0.0512,-0.0509,-0.0511,-0.0514,-0.0515,-0.0518,-0.0519,-0.0522,-0.0519,-0.0516,-0.0517,-0.0516,-0.0519,-0.0508,-0.0507,-0.0506,-0.0502,-0.0501,-0.0519,-0.0519,-0.0519,-0.0519,0,-0.0488,-0.0487,-0.0484,-0.0487,-0.0487,-0.0485,-0.0491,-0.0491,-0.0495,-0.0499,-0.0497,-0.0501,-0.0502,-0.0502,-0.0506,-0.05,-0.0502,-0.0507,-0.0513,-0.0503,-0.05,-0.0499,-0.0518,-0.0518,-0.0518,-0.0518,0,0,-0.0468,-0.0475,-0.0473,-0.0475,-0.048,-0.0479,-0.0477,-0.0479,-0.0479,-0.0481,-0.048,-0.048,-0.0485,-0.0486,-0.049,-0.0489,-0.048,-0.0494,-0.0494,-0.0491,-0.0473,-0.047,-0.0468,-0.0484,-0.0483,-0.0483,-0.0473,0,-0.0456,-0.0453,-0.0459,-0.0455,-0.0454,-0.0462,-0.0461,-0.0464,-0.0467,-0.0467,-0.0471,-0.0472,-0.0478,-0.0479,-0.0477,-0.0481,-0.0476,-0.0482,-0.0483,-0.0482,-0.0481,-0.0466,-0.0462,-0.0452,-0.0472,-0.0472,-0.0472,0,-0.0443,-0.0444,-0.044,-0.0445,-0.0445,-0.0443,-0.0445,-0.0445,-0.0449,-0.0452,-0.0453,-0.0459,-0.0458,-0.0464,-0.0463,-0.0466,-0.0467,-0.0469,-0.0469,-0.0469,-0.0476,-0.0466,-0.0449,-0.0448,-0.047,-0.047,-0.047,0,-0.0429,-0.043,-0.0427,-0.0428,-0.0434,-0.0433,-0.0436,-0.0439,-0.044,-0.0442,-0.0443,-0.0444,-0.0445,-0.0447,-0.0453,-0.0457,-0.0451,-0.0458,-0.0453,-0.0453,-0.0451,-0.0451,-0.0435,-0.0452,-0.0452,-0.0452,-0.0452,0,-0.0415,-0.0412,-0.0421,-0.0419,-0.0416,-0.0424,-0.042,-0.0424,-0.0427,-0.0427,-0.0434,-0.0433,-0.0441,-0.0442,-0.0446,-0.0445,-0.0445,-0.0447,-0.0449,-0.0447,-0.0446,-0.0447,-0.0448,-0.0451,-0.0452,-0.0452,-0.0452,0,-0.0399,-0.0405,-0.0403,-0.0409,-0.041,-0.0408,-0.0413,-0.0412,-0.0416,-0.0415,-0.0416,-0.0422,-0.0423,-0.0429,-0.0431,-0.0435,-0.0431,-0.0434,-0.043,-0.0431,-0.0426,-0.0426,-0.0409,-0.0407,-0.0426,-0.0425,-0.0425,0,-0.039,-0.0388,-0.0394,-0.0394,-0.0396,-0.0396,-0.0397,-0.0404,-0.0405,-0.0409,-0.0407,-0.0409,-0.041,-0.0411,-0.0416,-0.0418,-0.0421,-0.0415,-0.0421,-0.042,-0.0421,-0.0421,-0.0421,-0.0413,-0.0413,-0.0413,-0.0413,0,-0.0374,-0.0377,-0.0378,-0.038,-0.038,-0.0382,-0.0385,-0.0384,-0.0392,-0.0393,-0.0394,-0.0395,-0.0397,-0.0399,-0.0401,-0.0404,-0.041,-0.0411,-0.041,-0.0408,-0.0406,-0.0407,-0.0426,-0.0411,-0.0411,-0.0411,-0.0412,-0.0412,-0.0361,-0.036,-0.0364,-0.0364,-0.0367,-0.0369,-0.0369,-0.0373,-0.0374,-0.0376,-0.038,-0.0381,-0.0385,-0.0389,-0.0392,-0.0392,-0.0395,-0.0394,-0.0394,-0.0393,-0.0392,-0.0406,-0.0393,-0.0393,-0.0393,-0.0393,-0.0393,0,-0.0345,-0.0348,-0.0349,-0.0352,-0.0353,-0.0358,-0.0361,-0.0361,-0.0362,-0.0365,-0.0366,-0.0368,-0.0369,-0.0375,-0.0377,-0.0376,-0.0379,-0.0377,-0.0377,-0.0377,-0.0389,-0.039,-0.0374,-0.0374,-0.0374,-0.0374,-0.0374,-0.0374,-0.0337,-0.0335,-0.0339,-0.0338,-0.0341,-0.0342,-0.0343,-0.0345,-0.0348,-0.0349,-0.035,-0.0354,-0.0358,-0.0361,-0.0362,-0.0364,-0.0365,-0.0361,-0.0364,-0.0375,-0.0376,-0.0378,-0.0379,-0.0361,-0.0361,-0.0352,-0.0352,-0.0352]},{"header":{"parameterUnit":"m.s-1","parameterCategory":1,"la1":30.2991,"la2":30.254,"lo1":-89.0895,"lo2":-89.0444,"dy":0.0017,"dx":0.0017,"nx":28,"ny":28,"refTime":"2024-04-02T21:00:00:Z","depth":0,"parameterNumber":3,"parameterNumberName":"V-component_of_WINDS"},"data":[0,0,0,0,0,0,0,0,0,0,0,0,0,0,0,0,0,0,0,0,0,0,0,0,0,0,0,0,0,0,0,0,0,0,0,0,0,0,0,0,0,0,0,0,0,0,0,0,0,0,0,0,0,0,0,0,0,0,6.1211,6.1214,0,6.1529,6.1532,6.1536,6.1618,6.1616,6.1615,6.1613,6.1934,6.1944,6.1954,0,0,0,0,0,0,0,0,0,0,0,0,0,6.0671,6.068,6.1211,6.1215,6.1219,6.1528,6.1533,6.1537,6.1619,6.1616,6.1614,6.1612,6.1931,6.1943,6.1955,0,0,0,0,0,0,0,0,0,0,0,0,0,6.0938,6.0683,6.121,6.1297,6.1308,6.1527,6.1533,6.1538,6.1619,6.1616,6.1613,6.1611,6.1927,6.1942,6.1957,6.2112,0,0,6.2005,6.2011,0,0,0,0,0,0,0,0,6.0923,6.0958,6.128,6.1291,6.1304,6.1531,6.146,6.173,6.162,6.1501,6.1613,6.1609,6.1802,6.1828,6.1894,6.2127,6.214,6.2006,6.2015,6.2022,6.2026,0,0,0,0,0,0,0,6.0904,6.0945,6.1336,6.1285,6.1299,6.1319,6.1354,6.1512,6.1664,6.1511,6.1518,6.1555,6.1808,6.1878,6.1902,6.2145,6.2006,6.2019,6.2029,6.2035,6.2522,6.2526,0,0,0,0,0,0,6.0871,6.0929,6.1326,6.1346,6.1103,6.1331,6.137,6.1461,6.1662,6.169,6.1557,6.1557,6.1853,6.1883,6.1913,6.211,6.2022,6.2037,6.2045,6.2519,6.2523,6.2527,0,0,0,0,0,0,6.086,6.0906,6.1314,6.114,6.1193,6.1343,6.1445,6.1469,6.154,6.1697,6.1724,6.1601,6.1852,6.1891,6.2062,6.2122,6.2044,6.2058,6.2514,6.252,6.2525,6.2501,0,0,0,0,0,0,6.0844,6.0901,6.0962,6.114,6.1202,6.1458,6.1449,6.1477,6.1567,6.157,6.1746,6.1772,6.1853,6.2039,6.2078,6.2142,6.207,6.251,6.2517,6.2523,6.2497,6.2505,6.2512,0,0,0,0,0,6.0824,6.0942,6.0965,6.1013,6.1282,6.1461,6.1497,6.1589,6.1571,6.1633,6.1735,6.1766,6.2108,6.2055,6.21,6.217,6.2507,6.2515,6.2523,6.2494,6.2503,6.2511,0,0,0,0,0,0,6.0765,6.0967,6.0995,6.1174,6.13,6.1475,6.1557,6.1595,6.1728,6.1726,6.1833,6.1872,6.2036,6.2119,6.2057,6.233,6.2307,6.2325,6.227,6.2281,6.2287,6.2265,6.2083,0,0,0,0,0,6.0773,6.0904,6.1072,6.1213,6.1276,6.1405,6.1487,6.1547,6.1681,6.1735,6.1849,6.1977,6.2114,6.2201,6.2335,6.2509,6.2549,6.2579,6.2586,6.2591,6.2605,6.2705,6.272,6.2554,6.2554,6.2553,0,0,6.0791,6.0917,6.0993,6.1205,6.131,6.1442,6.1449,6.1588,6.1688,6.1756,6.1925,6.2013,6.2163,6.2336,6.2418,6.2411,6.266,6.2601,6.2604,6.2616,6.2715,6.273,6.2744,6.2559,6.2558,6.2557,0,0,6.0891,6.0999,6.113,6.1236,6.1395,6.1481,6.1511,6.1682,6.1743,6.1915,6.1969,6.2087,6.232,6.2425,6.2509,6.265,6.2684,6.269,6.2728,6.2824,6.2837,6.2849,6.2901,6.2918,6.2703,6.2703,6.2703,0,6.0893,6.1096,6.1192,6.133,6.1422,6.1491,6.1624,6.1721,6.1915,6.1977,6.1966,6.226,6.2366,6.2566,6.26,6.2665,6.2704,6.2672,6.2827,6.2841,6.2853,6.2904,6.2923,6.2703,6.2703,6.2703,6.2703,0,6.109,6.123,6.1316,6.1505,6.1606,6.174,6.1856,6.1947,6.1998,6.2084,6.2258,6.2387,6.255,6.2601,6.2651,6.2809,6.2799,6.2806,6.2786,6.2868,6.2917,6.2937,6.2703,6.2703,6.2703,6.2703,0,0,6.1164,6.1404,6.1435,6.1522,6.1703,6.1812,6.1949,6.211,6.2186,6.2317,6.2435,6.2631,6.2639,6.2734,6.2796,6.288,6.2985,6.2878,6.2883,6.2895,6.3168,6.3163,6.3184,6.3008,6.3012,6.3016,6.3156,0,6.1288,6.1538,6.1629,6.1834,6.1965,6.2032,6.2152,6.2275,6.2359,6.2481,6.2572,6.271,6.271,6.2768,6.2854,6.2954,6.3042,6.2945,6.312,6.3125,6.3082,6.321,6.3205,6.3332,6.3176,6.3179,6.3182,0,6.1467,6.1603,6.1822,6.1988,6.2047,6.2153,6.2308,6.2424,6.2564,6.262,6.2726,6.2783,6.2929,6.2897,6.3099,6.3032,6.3108,6.3168,6.3175,6.3197,6.316,6.3237,6.3374,6.3394,6.3213,6.321,6.3208,0,6.1502,6.1739,6.1901,6.1973,6.217,6.2244,6.2329,6.2467,6.2558,6.2693,6.2753,6.2901,6.2983,6.3097,6.3192,6.316,6.3386,6.3362,6.3436,6.3434,6.3483,6.3479,6.3636,6.3527,6.3527,6.3527,6.3526,0,6.1633,6.1764,6.1919,6.2019,6.2169,6.2271,6.2415,6.2504,6.2627,6.2745,6.281,6.2919,6.3037,6.3161,6.3236,6.3393,6.3429,6.3477,6.3496,6.3473,6.3467,6.3526,6.3521,6.3532,6.3531,6.353,6.3529,0,6.1697,6.1806,6.1988,6.216,6.2206,6.2309,6.2456,6.2555,6.2641,6.279,6.283,6.2966,6.3115,6.3221,6.3412,6.3463,6.3632,6.3649,6.3586,6.3595,6.3664,6.3657,6.3867,6.3901,6.3766,6.3768,6.3769,0,6.1774,6.1878,6.2062,6.2146,6.2232,6.2367,6.2461,6.2565,6.266,6.2829,6.2907,6.3061,6.3191,6.3426,6.3541,6.3688,6.371,6.3773,6.3732,6.3707,6.3714,6.3707,6.3719,6.378,6.3781,6.3782,6.3782,0,6.1901,6.195,6.2084,6.2237,6.2348,6.2473,6.2599,6.2663,6.2789,6.2892,6.3047,6.3147,6.3344,6.3496,6.3655,6.3741,6.3783,6.3794,6.382,6.3798,6.3758,6.3783,6.3605,6.3789,6.3789,6.3788,6.3788,6.3787,6.1977,6.2072,6.2217,6.2364,6.247,6.2586,6.2689,6.2788,6.292,6.309,6.3142,6.3303,6.3441,6.3659,6.3747,6.3874,6.387,6.3906,6.3916,6.3924,6.3924,6.3736,6.3902,6.3902,6.3902,6.3902,6.3902,0,6.2109,6.2206,6.234,6.2515,6.263,6.2661,6.2801,6.2896,6.3037,6.3163,6.329,6.3468,6.3616,6.3742,6.3896,6.3973,6.3996,6.4009,6.4006,6.4026,6.3917,6.3881,6.3988,6.3988,6.3988,6.3988,6.3988,6.3988,6.2191,6.2356,6.2422,6.2639,6.2735,6.2894,6.2972,6.3079,6.3181,6.3378,6.3502,6.3584,6.3711,6.3874,6.4011,6.4044,6.4099,6.4108,6.4146,6.4043,6.4033,6.4024,6.399,6.4119,6.4119,6.4245,6.4246,6.4247]}]]